Location: Ciserano
(45.5833°N, 9.6000°E)
Time: 18:00:56
(UTC+00:00)

ARGOS Delta rocket - Pass Details

Date: 29 November 2020
Orbit: 634 x 839 km, 96.5° (Epoch: 22 January)

Event Time Altitude Azimuth Distance (km) Brightness Sun altitude
Rises 03:58:07 0° 10° (N) 3,297 7.4 -27.6°
Reaches altitude 10° 04:00:31 10° 10° (N) 2,335 6.6 -27.2°
Enters shadow 04:04:44 60° 3° (N) 860 4.1 -26.4°
